When you browse on this site, cookies collect data to enhance your experience and personalize the content and advertising you see.
Visit our Privacy Policy to learn more. By continuing to use the site, you agree to this use of cookies and data.
  • In United Kingdom
  • List of Countries
  • For 7 days
  • Water Temperature
  • Weather Map
  • Weather Widgets
  • user-avatar
    Login

    Hourly Weather Zastarincy

    Today, 16 October, Wednesday

    Time Temperature Precipitation Wind Pressure Humidity
    00:00 +9°C° 0 mm 5 mps 752 mmHg 90%
    01:00 +10°C° 0 mm 4 mps 751 mmHg 89%
    02:00 +10°C° 0 mm 4 mps 751 mmHg 86%
    03:00 +10°C° 0 mm 4 mps 750 mmHg 87%
    04:00 +10°C° 0 mm 4 mps 750 mmHg 87%
    05:00 +10°C° 0 mm 5 mps 749 mmHg 87%
    06:00 +10°C° 0 mm 5 mps 749 mmHg 86%
    07:00 +10°C° 0 mm 5 mps 749 mmHg 85%
    08:00 +12°C° 0 mm 5 mps 748 mmHg 83%
    09:00 +13°C° 0 mm 5 mps 748 mmHg 78%
    10:00 +15°C° 0 mm 6 mps 748 mmHg 73%
    11:00 +16°C° 0 mm 6 mps 747 mmHg 67%
    12:00 +17°C° 0 mm 6 mps 747 mmHg 65%
    13:00 +17°C° 0 mm 5 mps 747 mmHg 64%
    14:00 +19°C° 0 mm 5 mps 747 mmHg 62%
    15:00 +16°C° 0 mm 5 mps 746 mmHg 67%
    16:00 +15°C° 0 mm 4 mps 746 mmHg 72%
    17:00 +14°C° 0 mm 4 mps 746 mmHg 77%
    18:00 +13°C° 0 mm 4 mps 746 mmHg 79%
    19:00 +13°C° 0 mm 4 mps 746 mmHg 81%
    20:00 +12°C° 0 mm 4 mps 746 mmHg 83%
    21:00 +12°C° 0 mm 4 mps 746 mmHg 84%
    22:00 +12°C° 0 mm 4 mps 746 mmHg 85%
    23:00 +12°C° 0 mm 4 mps 746 mmHg 86%

    Tomorrow, 17 October, Thursday

    Time Temperature Precipitation Wind Pressure Humidity
    00:00 +13°C° 0 mm 4 mps 746 mmHg 86%
    01:00 +13°C° 0 mm 4 mps 746 mmHg 86%
    02:00 +13°C° 0 mm 4 mps 746 mmHg 86%
    03:00 +13°C° 0.1 mm 4 mps 746 mmHg 88%
    04:00 +13°C° 0.1 mm 4 mps 746 mmHg 90%
    05:00 +13°C° 0.1 mm 4 mps 746 mmHg 93%
    06:00 +12°C° 0 mm 4 mps 746 mmHg 90%
    07:00 +12°C° 0 mm 4 mps 745 mmHg 88%
    08:00 +11°C° 0 mm 4 mps 745 mmHg 86%
    09:00 +10°C° 0.2 mm 5 mps 746 mmHg 85%
    10:00 +10°C° 0.2 mm 6 mps 746 mmHg 85%
    11:00 +10°C° 0.2 mm 6 mps 746 mmHg 84%
    12:00 +11°C° 0.3 mm 6 mps 746 mmHg 86%
    13:00 +11°C° 0.3 mm 6 mps 746 mmHg 87%
    14:00 +11°C° 0.3 mm 6 mps 746 mmHg 88%
    15:00 +11°C° 0.3 mm 6 mps 747 mmHg 88%
    16:00 +11°C° 0.3 mm 6 mps 747 mmHg 89%
    17:00 +11°C° 0.3 mm 6 mps 747 mmHg 90%
    18:00 +12°C° 0.1 mm 5 mps 747 mmHg 90%
    19:00 +12°C° 0.1 mm 5 mps 748 mmHg 90%
    20:00 +12°C° 0.1 mm 5 mps 748 mmHg 90%
    21:00 +12°C° 0 mm 4 mps 748 mmHg 91%
    22:00 +11°C° 0 mm 4 mps 749 mmHg 92%
    23:00 +11°C° 0 mm 4 mps 749 mmHg 92%

    Day after tomorrow, 18 October, Friday

    Time Temperature Precipitation Wind Pressure Humidity
    00:00 +10°C° 0 mm 3 mps 749 mmHg 93%
    01:00 +10°C° 0 mm 3 mps 749 mmHg 94%
    02:00 +9°C° 0 mm 3 mps 750 mmHg 95%
    03:00 +9°C° 0 mm 3 mps 750 mmHg 95%
    04:00 +10°C° 0 mm 2 mps 750 mmHg 94%
    05:00 +10°C° 0 mm 2 mps 750 mmHg 94%
    06:00 +10°C° 0.1 mm 2 mps 750 mmHg 94%
    07:00 +10°C° 0.1 mm 3 mps 750 mmHg 95%
    08:00 +10°C° 0.1 mm 3 mps 750 mmHg 95%
    09:00 +11°C° 0 mm 3 mps 750 mmHg 93%
    10:00 +11°C° 0 mm 3 mps 750 mmHg 91%
    11:00 +12°C° 0 mm 3 mps 751 mmHg 90%
    12:00 +13°C° 0 mm 3 mps 751 mmHg 86%
    13:00 +14°C° 0 mm 3 mps 751 mmHg 82%
    14:00 +15°C° 0 mm 2 mps 750 mmHg 78%
    15:00 +15°C° 0 mm 2 mps 751 mmHg 82%
    16:00 +14°C° 0 mm 1 mps 751 mmHg 85%
    17:00 +13°C° 0 mm 1 mps 751 mmHg 89%
    18:00 +13°C° 0 mm 1 mps 751 mmHg 89%
    19:00 +12°C° 0 mm 1 mps 751 mmHg 90%
    20:00 +12°C° 0 mm 1 mps 751 mmHg 91%
    21:00 +12°C° 0 mm 1 mps 751 mmHg 91%
    22:00 +12°C° 0 mm 1 mps 751 mmHg 92%
    23:00 +11°C° 0 mm 1 mps 751 mmHg 92%

    19 October, Saturday

    Time Temperature Precipitation Wind Pressure Humidity
    00:00 +10°C° 0 mm 2 mps 751 mmHg 93%
    01:00 +10°C° 0 mm 2 mps 751 mmHg 93%
    02:00 +9°C° 0 mm 2 mps 751 mmHg 94%
    03:00 +9°C° 0 mm 2 mps 751 mmHg 94%
    04:00 +9°C° 0 mm 2 mps 751 mmHg 94%
    05:00 +9°C° 0 mm 2 mps 751 mmHg 94%
    06:00 +9°C° 0 mm 2 mps 751 mmHg 93%
    07:00 +9°C° 0 mm 2 mps 750 mmHg 92%
    08:00 +10°C° 0 mm 2 mps 750 mmHg 91%
    09:00 +12°C° 0 mm 2 mps 750 mmHg 87%
    10:00 +13°C° 0 mm 2 mps 751 mmHg 83%
    11:00 +14°C° 0 mm 3 mps 751 mmHg 79%
    12:00 +14°C° 0 mm 3 mps 750 mmHg 79%
    13:00 +16°C° 0 mm 3 mps 750 mmHg 78%
    14:00 +17°C° 0 mm 3 mps 750 mmHg 77%
    15:00 +16°C° 0 mm 2 mps 750 mmHg 81%
    16:00 +15°C° 0 mm 2 mps 750 mmHg 86%
    17:00 +14°C° 0 mm 2 mps 750 mmHg 90%
    18:00 +13°C° 0 mm 2 mps 750 mmHg 91%
    19:00 +13°C° 0 mm 2 mps 750 mmHg 92%
    20:00 +12°C° 0 mm 2 mps 750 mmHg 93%
    21:00 +12°C° 0 mm 2 mps 750 mmHg 93%
    22:00 +12°C° 0 mm 2 mps 750 mmHg 93%
    23:00 +12°C° 0 mm 2 mps 750 mmHg 92%

    20 October, Sunday

    Time Temperature Precipitation Wind Pressure Humidity
    00:00 +12°C° 0 mm 2 mps 750 mmHg 92%
    01:00 +12°C° 0 mm 2 mps 750 mmHg 91%
    02:00 +12°C° 0 mm 2 mps 750 mmHg 91%
    03:00 +12°C° 0 mm 2 mps 750 mmHg 91%
    04:00 +12°C° 0 mm 2 mps 750 mmHg 91%
    05:00 +10°C° 0 mm 2 mps 750 mmHg 90%
    06:00 +12°C° 0 mm 2 mps 750 mmHg 90%
    07:00 +12°C° 0 mm 2 mps 750 mmHg 89%
    08:00 +12°C° 0 mm 2 mps 750 mmHg 88%
    09:00 +12°C° 0 mm 2 mps 750 mmHg 87%
    10:00 +13°C° 0 mm 2 mps 750 mmHg 85%
    11:00 +14°C° 0 mm 2 mps 751 mmHg 83%
    12:00 +14°C° 0 mm 2 mps 751 mmHg 82%
    13:00 +15°C° 0 mm 2 mps 751 mmHg 80%
    14:00 +16°C° 0 mm 2 mps 751 mmHg 79%
    15:00 +15°C° 0 mm 2 mps 751 mmHg 83%
    16:00 +14°C° 0 mm 2 mps 751 mmHg 87%
    17:00 +14°C° 0 mm 1 mps 751 mmHg 91%
    18:00 +13°C° 0 mm 1 mps 751 mmHg 92%
    19:00 +13°C° 0 mm 2 mps 751 mmHg 92%
    20:00 +13°C° 0 mm 2 mps 751 mmHg 93%
    21:00 +13°C° 0 mm 2 mps 751 mmHg 93%
    22:00 +12°C° 0 mm 2 mps 751 mmHg 93%
    23:00 +12°C° 0 mm 2 mps 751 mmHg 93%

    21 October, Monday

    Time Temperature Precipitation Wind Pressure Humidity
    00:00 +12°C° 0 mm 1 mps 751 mmHg 93%
    01:00 +12°C° 0 mm 1 mps 751 mmHg 93%
    02:00 +12°C° 0 mm 1 mps 751 mmHg 93%
    03:00 +12°C° 0 mm 1 mps 751 mmHg 93%
    04:00 +11°C° 0 mm 1 mps 751 mmHg 93%
    05:00 +11°C° 0 mm 1 mps 751 mmHg 93%
    06:00 +11°C° 0 mm 1 mps 751 mmHg 93%
    07:00 +11°C° 0 mm 1 mps 751 mmHg 94%
    08:00 +11°C° 0 mm 1 mps 751 mmHg 94%
    09:00 +13°C° 0 mm 2 mps 751 mmHg 90%
    10:00 +14°C° 0 mm 2 mps 751 mmHg 87%
    11:00 +15°C° 0 mm 2 mps 751 mmHg 83%
    12:00 +16°C° 0 mm 3 mps 752 mmHg 81%
    13:00 +16°C° 0 mm 3 mps 752 mmHg 78%
    14:00 +17°C° 0 mm 3 mps 752 mmHg 76%
    15:00 +16°C° 0 mm 3 mps 753 mmHg 81%
    16:00 +14°C° 0 mm 3 mps 753 mmHg 86%
    17:00 +14°C° 0 mm 2 mps 753 mmHg 91%
    18:00 +13°C° 0 mm 2 mps 754 mmHg 93%
    19:00 +12°C° 0 mm 2 mps 754 mmHg 94%
    20:00 +10°C° 0 mm 2 mps 755 mmHg 95%
    21:00 +9°C° 0 mm 2 mps 755 mmHg 96%
    22:00 +8°C° 0 mm 2 mps 755 mmHg 96%
    23:00 +8°C° 0 mm 2 mps 756 mmHg 96%
    Show more